Wisconsin Rapids, WI

1:33 AM CDT on April 29, 2017 (GMT -0500)
Alexander Field South Wood County

Weather History for KISW - February, 2013

Change the Weather History Date:

Friday, February 15, 2013

  Actual Average Record
Temperature  
Mean Temperature 12 °F -  
Max Temperature 19 °F 28 °F 48 °F (1954)
Min Temperature 3 °F 9 °F -17 °F (1963)
Degree Days  
Heating Degree Days 53    
Moisture  
Dew Point 1 °F    
Average Humidity 64    
Maximum Humidity 77    
Minimum Humidity 47    
Precipitation  
Precipitation 0.00 in - - ()
Sea Level Pressure  
Sea Level Pressure 30.21 in    
Wind  
Wind Speed 6 mph (WNW)    
Max Wind Speed 13 mph    
Max Gust Speed -    
Visibility 10 miles    
Events      
Averages and records for this station are not official NWS values.
T = Trace of Precipitation, MM = Missing Value Source: NWS Daily Summary

Daily Weather History Graph

Daily Weather History Graph

Search for Another Location

Airport or City:

Trip Planner

Search our weather history database for the weather conditions in past years. The results will help you decide how hot, cold, wet, or windy it might be!

Date:

Astronomy

Feb. 15, 2013 Rise Set
Actual Time 6:58 AM CST 5:28 PM CST
Civil Twilight 6:28 AM CST 5:58 PM CST
Nautical Twilight 5:54 AM CST 6:32 PM CST
Astronomical Twilight 5:21 AM CST 7:06 PM CST
Moon 9:19 AM CST (2/15) 11:46 PM CST (2/15)
Length of Visible Light 11h 29m
Length of Day
10h 30m
Waxing Crescent, 30% of the Moon is Illuminated
Feb 15
Waxing Crescent
Feb 17
First Quarter
Feb 25
Full
Mar 4
Last Quarter
Mar 11
New

Hourly Weather History & Observations

Time (CST) Temp. Windchill Dew Point Humidity Pressure Visibility Wind Dir Wind Speed Gust Speed Precip Events Conditions
12:54 AM 14.0 °F 5.1 °F 5.0 °F 67% 30.11 in 10.0 mi WNW 5.8 mph - N/A   Clear
1:54 AM 12.0 °F 4.1 °F 3.9 °F 70% 30.12 in 10.0 mi WNW 4.6 mph - N/A   Clear
2:54 AM 9.0 °F 0.6 °F 3.0 °F 77% 30.14 in 10.0 mi WNW 4.6 mph - N/A   Clear
3:54 AM 9.0 °F -0.9 °F 1.9 °F 73% 30.15 in 10.0 mi WNW 5.8 mph - N/A   Clear
4:54 AM 8.1 °F -2.0 °F 1.0 °F 73% 30.17 in 10.0 mi WNW 5.8 mph - N/A   Clear
5:54 AM 6.1 °F -2.8 °F -0.0 °F 76% 30.18 in 10.0 mi West 4.6 mph - N/A   Clear
6:54 AM 7.0 °F -1.7 °F -0.0 °F 73% 30.20 in 10.0 mi WNW 4.6 mph - N/A   Overcast
7:54 AM 7.0 °F -1.7 °F -0.0 °F 73% 30.22 in 10.0 mi WNW 4.6 mph - N/A   Overcast
8:54 AM 10.9 °F 1.4 °F 1.0 °F 64% 30.22 in 10.0 mi WNW 5.8 mph - N/A   Overcast
9:54 AM 14.0 °F 8.2 °F 1.9 °F 59% 30.23 in 10.0 mi NW 3.5 mph - N/A   Scattered Clouds
10:54 AM 16.0 °F 7.4 °F 3.0 °F 57% 30.23 in 10.0 mi NW 5.8 mph - N/A   Clear
11:54 AM 17.1 °F 4.3 °F 3.9 °F 56% 30.22 in 10.0 mi WNW 11.5 mph - N/A   Partly Cloudy
12:54 PM 18.0 °F 6.9 °F 3.9 °F 54% 30.21 in 10.0 mi WNW 9.2 mph - N/A   Clear
1:54 PM 19.0 °F 7.5 °F 1.9 °F 47% 30.20 in 10.0 mi WNW 10.4 mph - N/A   Clear
2:54 PM 19.0 °F 7.5 °F 3.0 °F 50% 30.20 in 10.0 mi NW 10.4 mph - N/A   Clear
3:54 PM 18.0 °F 4.8 °F 1.9 °F 50% 30.22 in 10.0 mi NW 12.7 mph - N/A   Clear
4:54 PM 17.1 °F 4.3 °F 3.0 °F 54% 30.23 in 10.0 mi NNW 11.5 mph - N/A   Clear
5:54 PM 12.9 °F 1.6 °F 1.0 °F 59% 30.25 in 10.0 mi WNW 8.1 mph - N/A   Clear
6:54 PM 12.0 °F 1.5 °F -0.0 °F 59% 30.26 in 10.0 mi WNW 6.9 mph - N/A   Clear
7:54 PM 10.0 °F -0.9 °F -0.9 °F 61% 30.26 in 10.0 mi WNW 6.9 mph - N/A   Mostly Cloudy
8:54 PM 8.1 °F -0.5 °F -2.0 °F 64% 30.26 in 10.0 mi West 4.6 mph - N/A   Clear
9:54 PM 6.1 °F -5.6 °F -2.9 °F 67% 30.26 in 10.0 mi WNW 6.9 mph - N/A   Clear
10:54 PM 5.0 °F -4.1 °F -2.9 °F 70% 30.26 in 10.0 mi WNW 4.6 mph - N/A   Mostly Cloudy
11:54 PM 3.9 °F -3.4 °F -2.9 °F 73% 30.25 in 10.0 mi WNW 3.5 mph - N/A   Overcast